CAPE
289 343 391 1263 1731 1623 1583 1497 1341 1182 1226 1375 1488 1271 1125 1010 932 795 648 598 337 194
317 264 547 1789 1805 1654 1549 1485 1254 1116 1231 1483 1210 1146 908 854 712 583 395 271 374 141
924 792 1599 2008 1925 1651 1347 1174 1125 1158 1361 1365 1126 972 829 530 395 328 250 213 132 65
1406 1569 2411 2207 1854 1472 1279 1222 1308 1307 1482 1117 833 705 494 284 288 312 190 145 64 42
1698 2479 2394 2133 2088 1850 1477 1521 1416 1333 942 814 645 491 175 238 299 204 50 29 0 28
2244 2324 1880 1721 1734 1882 1786 1516 1216 926 672 343 413 272 240 95 197 180 29 10 0 0
2040 1731 1143 930 888 857 814 736 658 474 183 360 406 128 4 40 139 122 73 92 25 1
1514 1253 924 690 649 364 305 258 237 132 142 185 164 47 20 204 167 105 8 5 0 0
1227 1032 820 568 411 251 210 113 67 62 29 2 3 2 94 121 115 15 0 0 0 1
971 793 545 318 176 153 147 165 74 39 1 0 1 0 1 15 79 36 2 0 0 9
650 459 309 203 91 67 130 57 62 91 13 0 0 0 0 10 74 26 0 0 0 7
385 289 246 75 42 92 62 60 114 92 2 0 0 0 0 0 38 6 0 0 1 1
255 145 159 13 89 58 37 61 113 105 3 0 0 0 0 1 8 0 0 0 0 0
303 107 33 139 100 76 79 93 136 60 0 0 0 0 0 6 11 0 0 0 0 0
CIN
-266 -232 -220 -102 -99 -164 -161 -176 -169 -164 -127 -68 -21 -29 -22 -19 -21 -26 -33 -28 -36 -48
-246 -247 -173 -57 -125 -138 -154 -153 -158 -147 -102 -24 -26 -28 -21 -21 -26 -36 -40 -48 -29 -54
-141 -130 -64 -62 -96 -114 -159 -163 -138 -108 -44 -17 -24 -16 -25 -36 -46 -46 -50 -51 -44 -55
-66 -36 -18 -40 -76 -122 -140 -122 -90 -52 -15 -14 -18 -26 -34 -55 -41 -32 -54 -49 -42 -32
-17 -7 -17 -23 -45 -65 -89 -48 -39 -20 -29 -25 -22 -29 -70 -50 -24 -40 -104 -82 -4 -40
-10 -13 -28 -45 -66 -56 -39 -28 -21 -33 -37 -49 -26 -44 -36 -75 -38 -28 -48 -75 -0 -6
-19 -39 -100 -127 -117 -133 -96 -65 -58 -54 -85 -41 -19 -82 -11 -108 -45 -34 -35 -37 -44 -30
-50 -58 -90 -103 -102 -134 -126 -112 -63 -80 -78 -56 -49 -98 -96 -20 -30 -34 -92 -47 -0 -0
-39 -57 -73 -97 -126 -138 -111 -105 -108 -135 -201 -24 -51 -56 -45 -33 -31 -46 -0 -0 -0 -48
-60 -79 -110 -146 -153 -132 -109 -91 -106 -206 -37 -0 -69 -0 -50 -65 -34 -44 -28 -0 -0 -70
-78 -113 -135 -129 -126 -136 -99 -132 -142 -107 -103 -7 -0 -0 -0 -46 -24 -27 -0 -0 -0 -39
-110 -121 -103 -123 -131 -88 -116 -120 -67 -63 -43 -0 -0 -0 -0 -0 -16 -21 -0 -0 -12 -58
-122 -126 -106 -145 -86 -120 -118 -83 -45 -44 -54 -0 -0 -0 -0 -3 -33 -2 -0 -0 -0 -0
-98 -106 -121 -66 -72 -68 -50 -38 -49 -68 -0 -0 -0 -0 -0 -19 -33 -16 -0 -0 -0 -0
Wind_Speed
20 18 16 12 10 9 6 6 4 3 2 1 0 3 3 4 6 5 5 7 7 8
17 16 15 11 9 8 6 6 3 2 2 2 1 2 3 5 5 5 5 6 7 8
15 15 12 10 9 7 4 2 3 4 4 3 3 3 4 5 5 4 5 7 7 7
13 12 10 9 8 5 3 3 4 6 4 4 4 3 4 4 5 5 5 6 6 7
10 9 10 8 6 4 4 5 6 5 4 3 3 3 4 4 4 5 5 6 7 6
8 8 7 5 4 7 8 7 6 5 4 2 2 4 5 5 6 6 5 6 6 7
8 7 6 6 4 5 7 5 6 4 4 4 5 5 6 7 6 5 6 6 6 7
7 6 5 4 5 6 4 3 5 5 5 4 4 5 6 6 6 6 7 7 8 9
6 6 5 5 6 5 4 4 4 5 6 6 6 6 6 7 6 7 8 8 9 10
6 6 6 4 3 3 4 5 6 6 6 6 6 8 8 8 7 7 8 9 10 10
7 6 4 3 3 4 6 7 6 6 6 7 8 9 9 9 8 8 9 10 11 11
8 5 4 5 5 5 7 7 7 8 7 7 9 9 9 9 9 10 10 11 12 11
9 7 8 8 5 6 8 7 9 8 7 8 9 10 9 9 10 11 11 12 12 9
10 11 10 7 7 8 8 7 7 9 8 8 9 10 10 10 11 11 12 12 13 9
Wind_Direction
256 265 268 257 254 256 253 275 268 278 249 243 7 360 29 25 11 8 1 355 354 357
248 254 255 248 248 236 261 282 266 206 178 152 71 57 38 12 9 9 8 5 4 2
250 250 245 227 225 227 260 254 163 156 147 125 99 83 24 19 24 36 32 16 16 16
249 242 215 204 205 207 196 146 136 137 122 109 89 39 27 43 55 66 47 26 25 24
236 207 197 197 197 184 147 131 122 113 100 82 58 37 51 77 70 98 58 32 23 35
203 200 187 185 182 151 137 125 117 107 93 56 60 82 84 68 61 84 51 45 47 32
178 167 160 152 131 124 123 111 118 104 90 85 91 99 65 82 68 49 42 58 46 28
156 153 146 138 129 116 89 62 83 57 32 38 71 44 57 55 54 27 21 37 29 24
154 150 135 114 105 93 81 64 47 45 59 36 15 14 34 49 43 33 33 35 34 13
148 134 120 105 80 64 54 74 82 71 52 39 16 6 19 36 40 49 53 42 33 35
129 120 109 86 80 38 73 80 79 64 50 45 5 12 33 25 44 53 41 44 48 75
119 108 103 100 95 77 81 71 69 77 61 24 9 40 45 31 50 45 44 55 54 50
110 98 108 106 91 81 87 81 81 72 38 30 27 40 31 50 59 55 53 52 55 356
103 103 99 97 95 86 81 80 71 73 44 24 46 42 12 56 70 66 59 64 68 44